WLF1PT FPST-FGSL

Flight info

Callsign WLF1PT
Flight time N/A
Altitude 9000
Route STM DCT PR DCT MBO
Aircraft C208/L-SDFGR/C

Departure

Time 2026-05-05 19:59
Airport São Tomé International Airport (FPST)

Arrival

Time N/A
Airport Malabo International Airport (FGSL)
Time Latitude Longitude Altitude Speed Heading
2026-05-05 19:27 0.37684 6.71120 31 ft 0 kts 224°
2026-05-05 19:55 0.37679 6.71096 31 ft 7 kts 283°
2026-05-05 19:55 0.37692 6.71076 32 ft 1 kts 341°
2026-05-05 19:55 0.37712 6.71080 32 ft 0 kts
2026-05-05 19:55 0.37760 6.71094 31 ft 16 kts 14°
2026-05-05 19:56 0.37862 6.71003 33 ft 30 kts 285°
2026-05-05 19:56 0.37925 6.70760 35 ft 42 kts 283°
2026-05-05 19:56 0.37982 6.70513 39 ft 27 kts 281°
2026-05-05 19:56 0.38004 6.70386 41 ft 12 kts 282°
2026-05-05 19:57 0.38019 6.70287 42 ft 20 kts 274°
2026-05-05 19:57 0.38025 6.70233 43 ft 0 kts 34°
2026-05-05 19:57 0.38036 6.70241 43 ft 3 kts 40°
2026-05-05 19:58 0.38040 6.70292 42 ft 9 kts 103°
2026-05-05 19:58 0.38039 6.70297 42 ft 0 kts 104°
2026-05-05 19:58 0.38021 6.70370 41 ft 29 kts 105°
2026-05-05 19:58 0.37931 6.70723 35 ft 75 kts 104°
2026-05-05 19:59 0.37808 6.71333 97 ft 98 kts 98°
2026-05-05 19:59 0.37801 6.72049 244 ft 102 kts 87°
2026-05-05 19:59 0.37956 6.72672 509 ft 94 kts 69°
2026-05-05 19:59 0.38426 6.73104 694 ft 96 kts 18°
2026-05-05 20:00 0.39129 6.73115 853 ft 102 kts 351°
2026-05-05 20:00 0.39857 6.73020 1004 ft 110 kts 356°
2026-05-05 20:00 0.40637 6.73004 1148 ft 114 kts 356°
2026-05-05 20:00 0.41441 6.72994 1337 ft 118 kts 357°
2026-05-05 20:01 0.42259 6.72837 1532 ft 122 kts 331°
2026-05-05 20:01 0.43107 6.72757 1708 ft 129 kts 17°
2026-05-05 20:01 0.43970 6.73041 1887 ft 132 kts 21°
2026-05-05 20:01 0.44817 6.73369 2053 ft 131 kts 23°
2026-05-05 20:02 0.45672 6.73720 2220 ft 135 kts 24°
2026-05-05 20:02 0.46540 6.74104 2385 ft 137 kts 26°
2026-05-05 20:02 0.47422 6.74487 2555 ft 139 kts 24°
2026-05-05 20:02 0.48317 6.74887 2740 ft 142 kts 26°
2026-05-05 20:03 0.49227 6.75297 2923 ft 144 kts 25°
2026-05-05 20:03 0.50155 6.75718 3090 ft 148 kts 25°
2026-05-05 20:03 0.51092 6.76155 3240 ft 149 kts 26°
2026-05-05 20:03 0.52037 6.76582 3408 ft 150 kts 25°
2026-05-05 20:04 0.52989 6.77020 3578 ft 151 kts 25°
2026-05-05 20:04 0.53927 6.77455 3733 ft 151 kts 25°
2026-05-05 20:04 0.54880 6.77901 3910 ft 151 kts 26°
2026-05-05 20:04 0.55832 6.78336 4073 ft 150 kts 26°
2026-05-05 20:05 0.56787 6.78769 4249 ft 151 kts 25°
2026-05-05 20:05 0.57740 6.79200 4427 ft 150 kts 25°
2026-05-05 20:05 0.58694 6.79636 4588 ft 153 kts 26°
2026-05-05 20:05 0.59678 6.80093 4651 ft 160 kts 25°
2026-05-05 20:06 0.60709 6.80568 4668 ft 166 kts 25°
2026-05-05 20:06 0.61722 6.81147 4676 ft 169 kts 49°
2026-05-05 20:06 0.61893 6.82234 4715 ft 162 kts 91°
2026-05-05 20:06 0.61982 6.83364 4659 ft 167 kts 85°
2026-05-05 20:07 0.62370 6.84464 4700 ft 171 kts 57°
2026-05-05 20:07 0.63195 6.85289 4756 ft 173 kts 44°
2026-05-05 20:07 0.64159 6.86067 4772 ft 173 kts 36°
2026-05-05 20:07 0.65137 6.86716 4898 ft 169 kts 35°
2026-05-05 20:08 0.66149 6.87355 4744 ft 179 kts 32°
2026-05-05 20:08 0.67210 6.87930 4943 ft 165 kts 28°
2026-05-05 20:08 0.68270 6.88392 4863 ft 173 kts 22°
2026-05-05 20:08 0.69406 6.88795 4892 ft 172 kts 22°
2026-05-05 20:09 0.70514 6.89251 4902 ft 172 kts 25°
2026-05-05 20:09 0.71622 6.89719 4908 ft 173 kts 24°
2026-05-05 20:09 0.72727 6.90197 4903 ft 173 kts 25°
2026-05-05 20:09 0.73822 6.90684 4907 ft 172 kts 26°
2026-05-05 20:10 0.74916 6.91164 4911 ft 172 kts 24°
2026-05-05 20:10 0.76013 6.91645 4910 ft 172 kts 25°
2026-05-05 20:10 0.77107 6.92130 4915 ft 172 kts 26°
2026-05-05 20:10 0.78202 6.92619 4913 ft 171 kts 25°
2026-05-05 20:11 0.79290 6.93100 4913 ft 171 kts 24°
2026-05-05 20:11 0.80380 6.93580 4916 ft 171 kts 25°
2026-05-05 20:11 0.81468 6.94061 4915 ft 171 kts 26°
2026-05-05 20:11 0.82556 6.94546 4921 ft 171 kts 25°
2026-05-05 20:12 0.83644 6.95044 4917 ft 172 kts 26°
2026-05-05 20:12 0.84731 6.95542 4916 ft 172 kts 26°
2026-05-05 20:12 0.85828 6.96026 4915 ft 172 kts 25°
2026-05-05 20:12 0.86916 6.96504 4912 ft 173 kts 24°
2026-05-05 20:13 0.88015 6.96994 4911 ft 173 kts 26°
2026-05-05 20:13 0.89110 6.97487 4914 ft 173 kts 26°
2026-05-05 20:13 0.90208 6.97989 4918 ft 173 kts 25°
2026-05-05 20:13 0.91308 6.98499 4921 ft 174 kts 26°
2026-05-05 20:14 0.92403 6.99015 4922 ft 175 kts 27°
2026-05-05 20:14 0.93498 6.99544 4921 ft 175 kts 28°
2026-05-05 20:14 0.94538 7.00163 4916 ft 173 kts 35°
2026-05-05 20:14 0.95539 7.00827 4917 ft 172 kts 35°
2026-05-05 20:15 0.96527 7.01493 4921 ft 171 kts 36°
2026-05-05 20:15 0.97542 7.02115 4924 ft 171 kts 31°
2026-05-05 20:15 0.98602 7.02670 4925 ft 172 kts 28°
2026-05-05 20:15 0.99664 7.03184 4921 ft 172 kts 26°
2026-05-05 20:16 1.00741 7.03695 4914 ft 171 kts 27°
2026-05-05 20:16 1.01813 7.04213 4916 ft 171 kts 28°
2026-05-05 20:16 1.02870 7.04756 4922 ft 171 kts 29°
2026-05-05 20:16 1.03919 7.05321 4924 ft 172 kts 29°
2026-05-05 20:17 1.04973 7.05882 4925 ft 172 kts 30°
2026-05-05 20:17 1.06041 7.06417 4923 ft 172 kts 28°
2026-05-05 20:17 1.07112 7.06943 4917 ft 171 kts 27°
2026-05-05 20:17 1.08175 7.07478 4916 ft 170 kts 28°
2026-05-05 20:18 1.09227 7.08018 4918 ft 170 kts 29°
2026-05-05 20:18 1.10282 7.08556 4924 ft 170 kts 29°
2026-05-05 20:18 1.11347 7.09095 4924 ft 171 kts 29°
2026-05-05 20:18 1.12399 7.09649 4924 ft 171 kts 29°
2026-05-05 20:19 1.13434 7.10234 4925 ft 171 kts 32°
2026-05-05 20:19 1.14442 7.10860 4920 ft 170 kts 34°
2026-05-05 20:19 1.15423 7.11515 4921 ft 169 kts 35°
2026-05-05 20:19 1.16384 7.12192 4920 ft 168 kts 37°
2026-05-05 20:20 1.17325 7.12887 4921 ft 168 kts 38°
2026-05-05 20:20 1.18248 7.13603 4923 ft 168 kts 41°
2026-05-05 20:20 1.19151 7.14340 4919 ft 168 kts 41°
2026-05-05 20:20 1.20024 7.15087 4923 ft 167 kts 42°
2026-05-05 20:21 1.20887 7.15862 4921 ft 167 kts 44°
2026-05-05 20:21 1.21733 7.16657 4921 ft 166 kts 49°
2026-05-05 20:21 1.21827 7.17588 3453 ft 178 kts 131°
2026-05-05 20:21 1.21352 7.18329 7 ft 26 kts 59°
2026-05-05 20:22 1.21381 7.18372 6 ft 8 kts 40°
2026-05-05 20:22 1.21421 7.18403 6 ft 7 kts 36°
2026-05-05 20:22 1.21461 7.18431 6 ft 7 kts 34°
2026-05-05 20:22 1.21499 7.18455 6 ft 6 kts 32°
2026-05-05 20:23 1.21520 7.18468 6 ft 5 kts 32°
2026-05-05 20:23 1.21558 7.18492 6 ft 5 kts 33°
2026-05-05 20:23 1.21582 7.18508 6 ft 4 kts 35°
2026-05-05 20:23 1.21598 7.18519 6 ft 4 kts 36°
2026-05-05 20:24 1.21622 7.18538 6 ft 6 kts 40°
2026-05-05 20:24 1.21673 7.18580 6 ft 9 kts 35°
2026-05-05 20:24 1.21730 7.18612 6 ft 9 kts 25°
2026-05-05 20:24 1.21792 7.18637 5 ft 9 kts 18°
2026-05-05 20:25 1.21804 7.18640 428 ft 0 kts 19°
2026-05-05 20:25 1.21844 7.18648 1649 ft 33 kts 326°
2026-05-05 20:25 1.22085 7.18746 386 ft 0 kts 131°
2026-05-05 20:26 1.21484 7.19412 5957 ft 166 kts 116°
2026-05-05 20:26 1.21103 7.20634 5097 ft 155 kts 107°
2026-05-05 20:26 1.20713 7.21592 4899 ft 158 kts 122°
2026-05-05 20:27 1.19992 7.22420 4947 ft 156 kts 138°
2026-05-05 20:27 1.19180 7.23145 4965 ft 158 kts 135°
2026-05-05 20:27 1.18491 7.24004 4973 ft 160 kts 120°
2026-05-05 20:27 1.18103 7.25044 4978 ft 162 kts 101°
2026-05-05 20:28 1.18101 7.26167 4975 ft 163 kts 80°
2026-05-05 20:28 1.18519 7.27221 4974 ft 165 kts 59°
2026-05-05 20:28 1.19320 7.28044 4976 ft 167 kts 36°
2026-05-05 20:28 1.20398 7.28485 4980 ft 170 kts 12°
2026-05-05 20:29 1.21583 7.28446 4980 ft 172 kts 347°
2026-05-05 20:29 1.22638 7.27927 4996 ft 172 kts 321°
2026-05-05 20:29 1.23420 7.26985 4921 ft 176 kts 298°
2026-05-05 20:29 1.23810 7.25899 5112 ft 162 kts 277°
2026-05-05 20:30 1.23697 7.24830 5328 ft 152 kts 240°
2026-05-05 20:30 1.22893 7.24333 5532 ft 136 kts 163°
2026-05-05 20:30 1.22177 7.24825 5763 ft 123 kts 137°
2026-05-05 20:30 1.21600 7.25452 5867 ft 127 kts 112°
2026-05-05 20:31 1.21692 7.26315 5882 ft 139 kts 49°
2026-05-05 20:31 1.22598 7.26326 5889 ft 162 kts 309°
2026-05-05 20:31 1.22195 7.25682 5763 ft 148 kts 128°
2026-05-05 20:31 1.22314 7.26434 6398 ft 88 kts 61°
2026-05-05 20:32 1.22830 7.26940 6195 ft 127 kts 45°
2026-05-05 20:32 1.23598 7.27542 6122 ft 145 kts 34°
2026-05-05 20:32 1.24459 7.27972 6460 ft 126 kts 25°
2026-05-05 20:32 1.25287 7.28190 6662 ft 126 kts 20°
2026-05-05 20:33 1.26205 7.28336 6698 ft 140 kts
2026-05-05 20:33 1.27183 7.28344 6853 ft 139 kts
2026-05-05 20:33 1.28119 7.28098 7035 ft 142 kts 346°
2026-05-05 20:33 1.29063 7.27770 7143 ft 143 kts 358°
2026-05-05 20:34 1.30066 7.27639 7192 ft 150 kts 354°
2026-05-05 20:34 1.31005 7.27114 7157 ft 171 kts 313°
2026-05-05 20:34 1.31605 7.26026 7032 ft 181 kts 313°
2026-05-05 20:34 1.32575 7.25332 7160 ft 165 kts 338°
2026-05-05 20:35 1.33522 7.24772 7426 ft 155 kts 329°
2026-05-05 20:35 1.34166 7.23922 7637 ft 158 kts 283°
2026-05-05 20:35 1.33707 7.23097 7752 ft 142 kts 170°
2026-05-05 20:35 1.33737 7.23610 7459 ft 151 kts
2026-05-05 20:36 1.34757 7.23376 7639 ft 145 kts 355°
2026-05-05 20:36 1.35791 7.23112 7525 ft 164 kts 340°